Location: Goettingen
(51.5300°N, 9.9433°E)
Time: 00:46:05
(UTC+02:00)

ISS - Pass Details

Date: 28 May 2017
Orbit: 402 x 408 km, 51.6° (Epoch: 30 May)

Event Time Altitude Azimuth Distance (km) Brightness Sun altitude
Rises 00:04:16 0° 269° (W) 2,333 0.2 -15.3°
Reaches altitude 10° 00:06:22 10° 269° (W) 1,472 -0.8 -15.4°
Maximum altitude 00:09:40 86° 0° (N) 414 -3.8 -15.5°
Drops below altitude 10° 00:12:58 10° 88° (E) 1,468 -1.1 -15.7°
Enters shadow 00:14:53 - 89° (E) 2,257 -0.2 -15.7°
